Location: *
(43.0167°S, 179.9000°E)
Time: 19:57:59
(UTC+00:00)

SJ-11-01 - Pass Details

Date: 12 August 2024
Orbit: 679 x 693 km, 97.9° (Epoch: 20 September)

Event Time Altitude Azimuth Distance (km) Brightness Sun altitude
Rises 16:48:40 0° 4° (N) 3,062 7.7 -23.9°
Reaches altitude 10° 16:50:56 10° 0° (N) 2,152 6.8 -23.5°
Enters shadow 16:54:56 53° 316° (NW) 857 4.4 -22.7°
